Date String (YYYY-MM-DD hh:mm:ss) UTC,Instrument flags,Ambient pressure (hPa),Sample flow (lpm),Bypass flow (lpm),Sample temperature (°C),Ambient temperature (°C),ASC tube jacket temperature (°C),LED temperature (°C),Box temperature (°C),Sample RH (%),Span deviation,Mass concentration (μg/m³),Mass concentration (μg/m³),Mass concentration (μg/m³)
DateTimeUTC,F1_M11,P_M11,Q1_M11,Q2_M11,T1_M11,T2_M11,T3_M11,T4_M11,T5_M11,U1_M11,ZSPAN_M11,X0_M11,X2_M11,X1_M11
2022-02-07 02:00:00,,0832.7,5.01,0.00,22.2,21.6,00.0,31.2,23.9,08.8,0000.0,0007.95,0003.46,0002.74
2022-02-07 02:01:00,,0832.7,4.99,0.00,22.2,21.6,00.0,31.2,23.9,08.8,0000.0,0007.80,0003.42,0002.76
2022-02-07 02:02:00,,0832.7,5.01,0.00,22.2,21.6,00.0,31.2,23.9,08.8,0000.0,0007.64,0003.41,0002.77
2022-02-07 02:03:00,,0832.7,4.99,0.00,22.2,21.5,00.0,31.2,23.9,08.9,0000.0,0007.06,0003.42,0002.78
2022-02-07 02:04:00,,0832.7,4.99,0.00,22.2,21.5,00.0,31.2,23.9,08.9,0000.0,0006.74,0003.40,0002.79
2022-02-07 02:05:00,,0832.7,5.01,0.00,22.2,21.5,00.0,31.2,23.9,08.9,0000.0,0006.68,0003.40,0002.81
2022-02-07 02:06:00,,0832.7,4.98,0.00,22.2,21.5,00.0,31.2,23.9,08.8,0000.0,0007.08,0003.38,0002.81
2022-02-07 02:07:00,,0832.7,5.01,0.00,22.2,21.5,00.0,31.2,23.9,08.8,0000.0,0007.41,0003.33,0002.79
2022-02-07 02:08:00,,0832.7,4.99,0.00,22.1,21.5,00.0,31.2,23.9,08.8,0000.0,0007.72,0003.27,0002.76
2022-02-07 02:09:00,,0832.7,5.00,0.00,22.1,21.5,00.0,31.2,23.9,08.8,0000.0,0007.91,0003.24,0002.75
2022-02-07 02:10:00,,0832.7,5.00,0.00,22.1,21.5,00.0,31.1,23.9,08.8,0000.0,0008.02,0003.23,0002.76
2022-02-07 02:11:00,,0832.7,5.00,0.00,22.1,21.5,00.0,31.1,23.9,08.8,0000.0,0008.01,0003.22,0002.74
2022-02-07 02:12:00,,0832.7,4.99,0.00,22.1,21.5,00.0,31.1,23.9,08.8,0000.0,0008.28,0003.22,0002.73
2022-02-07 02:13:00,,0832.7,5.00,0.00,22.2,21.5,00.0,31.1,23.9,08.8,0000.0,0008.94,0003.22,0002.72
2022-02-07 02:14:00,,0832.7,4.99,0.00,22.1,21.5,00.0,31.1,23.9,08.8,0000.0,0009.07,0003.26,0002.75
2022-02-07 02:15:00,,0832.7,5.01,0.00,22.2,21.5,00.0,31.1,23.9,08.8,0000.0,0009.15,0003.29,0002.78
2022-02-07 02:16:00,,0832.7,5.00,0.00,22.2,21.5,00.0,31.1,23.9,08.9,0000.0,0009.14,0003.30,0002.81
2022-02-07 02:17:00,,0832.7,4.99,0.00,22.1,21.5,00.0,31.1,23.9,09.0,0000.0,0008.62,0003.33,0002.83
2022-02-07 02:18:00,,0832.7,5.00,0.00,22.1,21.5,00.0,31.1,23.9,09.0,0000.0,0008.54,0003.37,0002.85
2022-02-07 02:19:00,,0832.7,5.00,0.00,22.1,21.5,00.0,31.1,23.9,08.9,0000.0,0008.45,0003.40,0002.88
2022-02-07 02:20:00,,0832.8,4.99,0.00,22.1,21.4,00.0,31.1,23.8,08.9,0000.0,0008.51,0003.42,0002.90
2022-02-07 02:21:00,,0832.8,5.01,0.00,22.1,21.4,00.0,31.1,23.8,08.9,0000.0,0008.39,0003.44,0002.90
2022-02-07 02:22:00,,0832.8,5.00,0.00,22.1,21.4,00.0,31.1,23.8,08.9,0000.0,0008.44,0003.45,0002.90
2022-02-07 02:23:00,,0832.8,5.00,0.00,22.2,21.7,00.0,31.1,23.9,08.8,0000.0,0008.20,0003.46,0002.91
2022-02-07 02:24:00,,0832.8,5.00,0.00,22.3,22.4,00.0,31.2,24.2,08.8,0000.0,0007.52,0003.46,0002.90
2022-02-07 02:25:00,,0832.9,5.01,0.00,22.4,23.0,00.0,31.2,24.4,08.8,0000.0,0007.47,0003.45,0002.89
2022-02-07 02:26:00,,0832.8,5.00,0.00,22.5,22.9,00.0,31.2,24.5,08.7,0000.0,0007.41,0003.43,0002.88
2022-02-07 02:27:00,,0832.8,5.00,0.00,22.5,22.7,00.0,31.3,24.4,08.7,0000.0,0007.38,0003.40,0002.86
2022-02-07 02:28:00,,0832.8,5.00,0.00,22.5,22.5,00.0,31.3,24.4,08.7,0000.0,0007.30,0003.38,0002.84
2022-02-07 02:29:00,,0832.8,4.99,0.00,22.5,22.4,00.0,31.3,24.3,08.6,0000.0,0007.08,0003.37,0002.81
2022-02-07 02:30:00,,0832.8,4.99,0.00,22.5,22.2,00.0,31.3,24.3,08.6,0000.0,0006.18,0003.35,0002.79
2022-02-07 02:31:00,,0832.8,5.01,0.00,22.5,22.1,00.0,31.3,24.2,08.6,0000.0,0006.47,0003.32,0002.76
2022-02-07 02:32:00,,0832.9,4.99,0.00,22.4,22.0,00.0,31.3,24.2,08.7,0000.0,0007.06,0003.29,0002.73
2022-02-07 02:33:00,,0832.8,5.00,0.00,22.4,22.0,00.0,31.3,24.2,08.7,0000.0,0006.99,0003.29,0002.73
2022-02-07 02:34:00,,0832.8,5.01,0.00,22.4,21.9,00.0,31.3,24.1,08.7,0000.0,0006.94,0003.29,0002.72
2022-02-07 02:35:00,,0832.8,4.99,0.00,22.4,21.8,00.0,31.3,24.1,08.7,0000.0,0007.46,0003.30,0002.72
2022-02-07 02:36:00,,0832.8,5.02,0.00,22.4,21.8,00.0,31.3,24.1,08.7,0000.0,0007.82,0003.29,0002.73
2022-02-07 02:37:00,,0832.8,4.99,0.00,22.4,21.8,00.0,31.3,24.1,08.7,0000.0,0007.80,0003.28,0002.72
2022-02-07 02:38:00,,0832.9,5.00,0.00,22.3,21.7,00.0,31.3,24.1,08.7,0000.0,0007.79,0003.28,0002.70
2022-02-07 02:39:00,,0832.8,5.01,0.00,22.3,21.7,00.0,31.3,24.0,08.7,0000.0,0007.81,0003.30,0002.68
2022-02-07 02:40:00,,0832.8,4.99,0.00,22.3,21.7,00.0,31.3,24.0,08.7,0000.0,0007.77,0003.29,0002.69
2022-02-07 02:41:00,,0832.8,5.00,0.00,22.3,21.6,00.0,31.3,24.0,08.7,0000.0,0008.19,0003.30,0002.69
2022-02-07 02:42:00,,0832.8,4.99,0.00,22.3,21.6,00.0,31.3,24.0,08.7,0000.0,0008.01,0003.32,0002.71
2022-02-07 02:43:00,,0832.8,4.98,0.00,22.3,21.6,00.0,31.3,24.0,08.7,0000.0,0007.56,0003.32,0002.74
2022-02-07 02:44:00,,0832.9,5.01,0.00,22.3,21.6,00.0,31.3,24.0,08.7,0000.0,0008.09,0003.29,0002.73
2022-02-07 02:45:00,,0832.9,5.00,0.00,22.3,21.6,00.0,31.3,24.0,08.7,0000.0,0008.22,0003.27,0002.74
2022-02-07 02:46:00,,0833.0,5.00,0.00,22.3,21.6,00.0,31.3,24.0,08.7,0000.0,0008.48,0003.24,0002.72
2022-02-07 02:47:00,,0833.0,4.99,0.00,22.2,21.6,00.0,31.3,24.0,08.8,0000.0,0008.13,0003.21,0002.70
2022-02-07 02:48:00,,0833.1,4.99,0.00,22.2,21.5,00.0,31.3,23.9,08.8,0000.0,0008.09,0003.21,0002.71
2022-02-07 02:49:00,,0833.1,5.00,0.00,22.2,21.5,00.0,31.3,23.9,08.8,0000.0,0008.13,0003.22,0002.73
2022-02-07 02:50:00,,0833.0,4.99,0.00,22.2,21.5,00.0,31.3,23.9,08.8,0000.0,0008.18,0003.22,0002.76
2022-02-07 02:51:00,,0833.0,5.00,0.00,22.2,21.5,00.0,31.2,23.9,08.8,0000.0,0008.22,0003.24,0002.78
2022-02-07 02:52:00,,0832.9,4.99,0.00,22.2,21.5,00.0,31.2,23.9,08.8,0000.0,0007.87,0003.26,0002.81
2022-02-07 02:53:00,,0832.9,5.01,0.00,22.2,21.4,00.0,31.2,23.8,08.8,0000.0,0007.92,0003.26,0002.81
2022-02-07 02:54:00,,0832.9,4.99,0.00,22.1,21.4,00.0,31.2,23.8,08.8,0000.0,0008.37,0003.28,0002.81
2022-02-07 02:55:00,,0832.9,5.00,0.00,22.1,21.4,00.0,31.2,23.8,08.8,0000.0,0008.02,0003.31,0002.82
2022-02-07 02:56:00,,0832.9,5.00,0.00,22.1,21.6,00.0,31.2,23.9,08.8,0000.0,0007.72,0003.31,0002.81
2022-02-07 02:57:00,,0832.9,5.00,0.00,22.2,22.1,00.0,31.3,24.1,08.8,0000.0,0007.13,0003.31,0002.80
2022-02-07 02:58:00,,0832.9,4.99,0.00,22.4,22.8,00.0,31.3,24.3,08.7,0000.0,0006.98,0003.35,0002.83
2022-02-07 02:59:00,,0833.1,5.01,0.00,22.4,22.8,00.0,31.3,24.4,08.7,0000.0,0007.40,0003.37,0002.85
